Weather History for KOXR - January, 2013

Change the Weather History Date:

Sunday, January 20, 2013

  Actual Average Record
Temperature  
Mean Temperature 64 °F -  
Max Temperature 80 °F 65 °F 86 °F (1975)
Min Temperature 45 °F 44 °F 33 °F (1973)
Degree Days  
Heating Degree Days 1    
Growing Degree Days 14 (Base 50)    
Moisture  
Dew Point 23 °F    
Average Humidity 29    
Maximum Humidity 61    
Minimum Humidity 6    
Precipitation  
Precipitation 0.00 in - - ()
Sea Level Pressure  
Sea Level Pressure 30.09 in    
Wind  
Wind Speed 6 mph (NE)    
Max Wind Speed 20 mph    
Max Gust Speed 26 mph    
Visibility 10 miles    
Events      
Averages and records for this station are not official NWS values.
T = Trace of Precipitation, MM = Missing Value Source: NWS Daily Summary

Daily Weather History Graph

Daily Weather History Graph

Search for Another Location

Airport or City:

Trip Planner

Search our weather history database for the weather conditions in past years. The results will help you decide how hot, cold, wet, or windy it might be!

Date:

Astronomy

Jan. 20, 2013 Rise Set
Actual Time 7:00 AM PST 5:15 PM PST
Civil Twilight 6:33 AM PST 5:42 PM PST
Nautical Twilight 6:03 AM PST 6:12 PM PST
Astronomical Twilight 5:33 AM PST 6:42 PM PST
Moon 12:19 PM PST (1/20) 1:39 AM PST (1/20)
Length of Visible Light 11h 08m
Length of Day
10h 14m
Waxing Gibbous, 67% of the Moon is Illuminated
Jan 20
Waxing Gibbous
Jan 26
Full
Feb 3
Last Quarter
Feb 9
New
Feb 17
First Quarter

Hourly Weather History & Observations

Time (PST) Temp. Windchill Dew Point Humidity Pressure Visibility Wind Dir Wind Speed Gust Speed Precip Events Conditions
12:51 AM 55.0 °F - 18.0 °F 23% 30.13 in 10.0 mi NE 8.1 mph - N/A   Clear
1:51 AM 53.1 °F - 16.0 °F 23% 30.12 in 10.0 mi ENE 6.9 mph - N/A   Clear
2:51 AM 54.0 °F - 15.1 °F 22% 30.12 in 10.0 mi ENE 6.9 mph - N/A   Clear
3:51 AM 52.0 °F - 15.1 °F 23% 30.11 in 10.0 mi ENE 4.6 mph - N/A   Clear
4:51 AM 51.1 °F - 16.0 °F 25% 30.12 in 10.0 mi Calm Calm - N/A   Clear
5:51 AM 51.1 °F - 17.1 °F 26% 30.11 in 10.0 mi NE 4.6 mph - N/A   Clear
6:51 AM 51.1 °F - 16.0 °F 25% 30.12 in 10.0 mi Calm Calm - N/A   Clear
7:59 AM 51.8 °F - 19.4 °F 28% 30.12 in 10.0 mi North - - N/A   Clear
8:51 AM 61.0 °F - 28.0 °F 29% 30.14 in 10.0 mi Calm Calm - N/A   Clear
9:51 AM 66.9 °F - 23.0 °F 19% 30.14 in 10.0 mi Calm Calm - N/A   Clear
10:51 AM 75.9 °F - 12.9 °F 9% 30.11 in 10.0 mi East 13.8 mph 26.5 mph N/A   Clear
11:51 AM 78.1 °F - 10.9 °F 8% 30.08 in 10.0 mi East 16.1 mph 23.0 mph N/A   Clear
12:51 PM 79.0 °F - 8.1 °F 7% 30.04 in 10.0 mi East 19.6 mph - N/A   Clear
1:51 PM 80.1 °F - 8.1 °F 6% 30.01 in 10.0 mi ENE 16.1 mph 26.5 mph N/A   Clear
3:51 PM 66.9 °F - 34.0 °F 30% 30.04 in 10.0 mi North - - N/A   Clear
4:51 PM 63.0 °F - 32.0 °F 31% 30.05 in 10.0 mi West 5.8 mph - N/A   Clear
5:01 PM 62.6 °F - 33.8 °F 34% 30.05 in 10.0 mi WSW 5.8 mph - N/A   Clear
5:51 PM 61.0 °F - 27.0 °F 27% 30.06 in 10.0 mi Variable 3.5 mph - N/A   Clear
7:51 PM 53.1 °F - 39.9 °F 61% 30.09 in 10.0 mi WNW 3.5 mph - N/A   Clear
8:51 PM 54.0 °F - 34.0 °F 47% 30.09 in 10.0 mi West 6.9 mph - N/A   Clear
9:51 PM 48.9 °F - 35.1 °F 59% 30.10 in 10.0 mi West 4.6 mph - N/A   Clear
10:51 PM 48.0 °F - 33.1 °F 56% 30.09 in 10.0 mi Calm Calm - N/A   Clear
11:51 PM 45.0 °F 43.5 °F 28.9 °F 53% 30.08 in 10.0 mi NE 3.5 mph - N/A   Clear